Regional Weather Roundup
Issued by NWS

Home | Current Version | Previous Version | Text Only | Print | Product List | Glossary On
Versions: 1 2 3 4 5 6 7 8 9 10 11 12 13 14 15 16 17 18 19 20 21 22 23 24 25 26 27 28 29 30 31 32 33 34 35 36 37 38 39 40 41 42 43 44 45 46 47 48 49 50
000
ASUS43 KMPX 280710
RWRMN
WEATHER ROUNDUP FOR MINNESOTA
NATIONAL WEATHER SERVICE TWIN CITIES/CHANHASSEN MN
200 AM CDT WED JUN 28 2017


NOTE: "FAIR" INDICATES FEW OR NO CLOUDS BELOW 12,000 FEET WITH NO
SIGNIFICANT WEATHER AND/OR OBSTRUCTIONS TO VISIBILITY. N/A MEANS
CURRENT SKY AND/OR WEATHER CONDITIONS ARE NOT AVAILABLE.

MNZ060>063-068>070-280800-
   Twin Cities Metro

CITY           SKY/WX    TMP DP  RH WIND       PRES   REMARKS
TWIN CITIES    CLOUDY    67  47  48 SE13      29.73F
ST PAUL        CLOUDY    65  49  56 SE15      29.73F
CRYSTAL        CLOUDY    68  45  43 S14       29.71F
BLAINE         CLOUDY    68  46  45 SE12      29.72S
LAKEVILLE      CLOUDY    63  48  59 SE5       29.74F
EDEN PRAIRIE   MOCLDY    67  48  50 SE15      29.72F
SOUTH ST PAUL  CLOUDY    65  46  51 SE7       29.74S
LAKE ELMO      FAIR      64  46  52 SE9       29.76R
$$
MNZ001>005-007-008-013>017-022>024-027-028-280800-
   Northwest Minnesota

CITY           SKY/WX    TMP DP  RH WIND       PRES   REMARKS
BEMIDJI        CLOUDY    60  52  75 SE9G16    29.65F
HALLOCK        CLOUDY    64  52  63 SE7       29.56F
ROSEAU         CLOUDY    64  52  63 S8        29.61F
WARROAD        PTCLDY    63  52  67 S9        29.62S
THIEF RVR FALL CLOUDY    65  49  56 SE10      29.62S
CROOKSTON      CLOUDY    66  50  55 SE12      29.59R
FOSSTON        CLOUDY    61  48  63 SE8       29.62R
DETROIT LAKES  TSTM      63  52  67 S10       29.63R
MOORHEAD       CLOUDY    63  57  82 SE13G21   29.53F
PARK RAPIDS    CLOUDY    61  49  64 SE15      29.65S
MAHNOMEN       CLOUDY    64  51  62 SE12G21   29.60R
$$
MNZ006-009>011-018-025>026-280800-
   North Central Minnesota

CITY           SKY/WX    TMP DP  RH WIND       PRES   REMARKS
BAUDETTE       PTCLDY    58  49  72 SE7       29.64F
FLAG ISLAND    CLEAR     66  50  55 SE9       29.63F
INTL FALLS     PTCLDY    52  46  80 SE6       29.70F
WASKISH        CLOUDY    63  48  59 SE7       29.64F
BIG FORK       CLOUDY    61  46  59 SE5       29.69F
LONGVILLE      CLOUDY    55  54  94 CALM      29.67F
GRAND RAPIDS   MOCLDY    57  45  64 CALM      29.71F
CRANE LAKE     MOCLDY    46  46 100 CALM      29.77F
ORR            CLEAR     55  43  62 E5        29.70F
COOK           CLEAR     55  45  67 CALM      29.73F
WALKER         CLOUDY    59  52  77 SE6       29.65F
$$
MNZ012-019>021-037-280800-
   Northeast Minnesota

CITY           SKY/WX    TMP DP  RH WIND       PRES   REMARKS
DULUTH         PTCLDY    58  46  64 S7        29.75F
ELY            PTCLDY    52  45  76 SE6       29.77F
HIBBING        CLEAR     45  44  97 SE6       29.72F
EVELETH        CLEAR     45  42  88 CALM      29.76F
DULUTH HARBOR  PTCLDY    57  52  82 NE3       29.76F
TWO HARBORS    CLEAR     50  45  81 CALM      29.77F
SILVER BAY     CLOUDY    46  46 100 CALM      29.78F
GRAND MARAIS     N/A     49  46  90 CALM      29.80F
G MARAIS ARPRT CLOUDY    55  43  62 CALM      29.84F
$$
MNZ029>031-032-039>041-046>048-054>057-064-280800-
   West Central Minnesota

CITY           SKY/WX    TMP DP  RH WIND       PRES   REMARKS
FERGUS FALLS   CLOUDY    66  55  68 E9        29.57R THUNDER
WHEATON        CLOUDY    66  54  63 SE20      29.55S
MORRIS         CLOUDY    68  54  60 SE21G28   29.58S
ALEXANDRIA     CLOUDY    67  53  61 S15G22    29.63F
ELBOW LAKE     MOCLDY    68  54  60 E18G26    29.56F
WADENA         CLOUDY    63  50  63 SE10      29.63R
GLENWOOD       CLOUDY    66  52  59 SE18G24   29.62F THUNDER
APPLETON       CLOUDY    72  54  53 S12G23    29.58R
BENSON         LGT RAIN  64  55  72 S15G22    29.61S
ORTONVILLE     CLOUDY    70  55  60 SE12G21   29.57R
MADISON        CLOUDY    72  63  73 S17G26    29.59R
WILLMAR        CLOUDY    70  54  56 SE16G25   29.64F THUNDER
$$
MNZ033>034-036-042>043-049>051-058-059-280800-
   Central Minnesota

CITY           SKY/WX    TMP DP  RH WIND       PRES   REMARKS
ST CLOUD       CLOUDY    63  51  65 E9        29.68F
SAUK CENTRE    CLOUDY    64  52  63 SE14      29.63F
PAYNESVILLE    CLOUDY    67  50  54 SE13G18   29.65F
AITKIN         CLOUDY    55  52  88 SE6       29.67F
PINE RIVER     CLOUDY    59  52  77 SE6       29.70F
BRAINERD       CLOUDY    59  50  72 SE9       29.67F
STAPLES        CLOUDY    57  48  72 SE5       29.66S
LONG PRAIRIE   FAIR      55  52  88 E8        29.66F
LITTLE FALLS   CLOUDY    61  46  59 E10G16    29.66F
LITCHFIELD     CLOUDY    70  54  56 S8        29.67F
BUFFALO        CLOUDY    67  48  50 SE9       29.70F
MAPLE LAKE     CLOUDY    68  52  55 SE9G21    29.69F
HUTCHINSON     CLOUDY    70  54  57 SE16G29   29.67F
$$
MNZ037-044-045-052-053-280800-
   East Central Minnesota

CITY           SKY/WX    TMP DP  RH WIND       PRES   REMARKS
PRINCETON      CLOUDY    63  48  59 E5        29.72F
MORA           CLOUDY    55  46  71 SE5       29.74F
CAMBRIDGE      PTCLDY    66  48  52 SE6       29.72S
RUSH CITY      CLOUDY    59  48  67 S9        29.73F
MOOSE LAKE     CLOUDY    61  45  55 CALM      29.71F
HINCKLEY       FAIR      59  50  72 SE3       29.73F
CLOQUET        CLOUDY    55  45  67 E5        29.75F
MCGREGOR       CLOUDY    59  46  63 SE6       29.70F
$$
MNZ071>073-080-081-089-090-097-098-280800-
   Southwest Minnesota

CITY           SKY/WX    TMP DP  RH WIND       PRES   REMARKS
MONTEVIDEO     CLOUDY    70  55  60 S15G24    29.60S THUNDER
GRANITE FALLS  TSTM      67  61  80 SE16      29.64S
CANBY          CLOUDY    71  63  76 S13G21    29.61R
MARSHALL       CLOUDY    67  62  84 S18G26    29.61F
REDWOOD FALLS  TSTM      63  58  83 S24G30    29.65F
OLIVIA         CLOUDY    61  55  82 S20       29.64F
PIPESTONE      TSTM      66  63  88 S10G21    29.66R
WINDOM         TSTM      64  61  88 S17G26    29.72S
WORTHINGTON    HVY RAIN  64  64 100 E15       29.69F FOG
TRACY          CLOUDY    66  63  89 S17G31    29.63F
SLAYTON        CLOUDY    63  62  94 SE20      29.68F
$$
MNZ065>067-074>077-082>085-091>093-280800-
   South Central Minnesota

CITY           SKY/WX    TMP DP  RH WIND       PRES   REMARKS
MANKATO        CLOUDY    69  53  56 SE16G29   29.69F
NEW ULM        LGT RAIN  61  55  82 SE8       29.69S
ST JAMES       CLOUDY    64  59  82 W7        29.75R
FAIRMONT       LGT RAIN  67  58  72 S22G29    29.67F
GLENCOE        TSTM      69  56  63 SE8       29.70F
FARIBAULT      CLOUDY    66  50  55 SE14      29.74F
OWATONNA       CLOUDY    66  52  59 S14G22    29.74F
WASECA         CLOUDY    66  50  55 SE14      29.76F
ALBERT LEA     CLOUDY    68  50  52 S20G25    29.75F
$$
MNZ078>079-086>088-094>096-280800-
   Southeast Minnesota

CITY           SKY/WX    TMP DP  RH WIND       PRES   REMARKS
ROCHESTER      MOCLDY    64  49  57 S15       29.80F
RED WING       CLOUDY    64  45  48 SE10      29.77R
STANTON        CLOUDY    66  48  53 SE8       29.74F
DODGE CENTER   CLOUDY    66  48  52 S15G21    29.77F
WINONA         CLOUDY    63  46  55 SE5       29.84R
AUSTIN         CLOUDY    66  48  52 S13G20    29.77F
PRESTON        MOCLDY    64  48  56 S14       29.84R
$$
ABBREVIATIONS USED IN REMARKS
   TC - TEMPERATURES IN CELSIUS
  WCI - WIND CHILL INDEX
   HX - HEAT INDEX
  VSB - VISIBILITY
$$




USA.gov is the U.S. government's official web portal to all federal, state and local government web resources and services.